owner,sensor,date,latitude,longitude,vertical_datum,sea_water_practical_salinity,qcFlag 
NERRS,ioos:station:NOAA.NERRS:rkblhwq:1,2016-03-01T00:45:00Z,26.0257,-81.7332,0.89,28.7,1111122 
NERRS,ioos:station:NOAA.NERRS:rkblhwq:1,2016-03-01T01:45:00Z,26.0257,-81.7332,0.79,28.1,1111122 
NERRS,ioos:station:NOAA.NERRS:rkblhwq:1,2016-03-01T02:45:00Z,26.0257,-81.7332,0.69,27.7,1111122 
NERRS,ioos:station:NOAA.NERRS:rkblhwq:1,2016-03-01T03:45:00Z,26.0257,-81.7332,0.59,27.4,1111122 
NERRS,ioos:station:NOAA.NERRS:rkblhwq:1,2016-03-01T08:45:00Z,26.0257,-81.7332,0.64,27.6,1111122 
NERRS,ioos:station:NOAA.NERRS:rkblhwq:1,2016-03-01T09:45:00Z,26.0257,-81.7332,0.73,28.0,1111122 
NERRS,ioos:station:NOAA.NERRS:rkblhwq:1,2016-03-01T10:45:00Z,26.0257,-81.7332,0.83,28.5,1111122 
NERRS,ioos:station:NOAA.NERRS:rkblhwq:1,2016-03-01T11:45:00Z,26.0257,-81.7332,0.9,29.0,1111122 
NERRS,ioos:station:NOAA.NERRS:rkblhwq:1,2016-03-01T12:45:00Z,26.0257,-81.7332,0.91,29.1,1111122 
NERRS,ioos:station:NOAA.NERRS:rkblhwq:1,2016-03-01T15:45:00Z,26.0257,-81.7332,0.78,28.1,1111122 
NERRS,ioos:station:NOAA.NERRS:rkblhwq:1,2016-03-01T16:45:00Z,26.0257,-81.7332,0.77,27.8,1111122 
NERRS,ioos:station:NOAA.NERRS:rkblhwq:1,2016-03-01T17:45:00Z,26.0257,-81.7332,0.79,27.9,1111122 
NERRS,ioos:station:NOAA.NERRS:rkblhwq:1,2016-03-01T19:45:00Z,26.0257,-81.7332,0.92,28.7,1111122 
NERRS,ioos:station:NOAA.NERRS:rkblhwq:1,2016-03-01T20:45:00Z,26.0257,-81.7332,1.01,28.9,1111122 
NERRS,ioos:station:NOAA.NERRS:rkblhwq:1,2016-03-01T21:45:00Z,26.0257,-81.7332,1.07,29.2,1111122 
NERRS,ioos:station:NOAA.NERRS:rkblhwq:1,2016-03-01T22:45:00Z,26.0257,-81.7332,1.13,29.4,1111122 
NERRS,ioos:station:NOAA.NERRS:rkblhwq:1,2016-03-01T23:45:00Z,26.0257,-81.7332,1.12,29.4,1111122 
NERRS,ioos:station:NOAA.NERRS:rkblhwq:1,2016-03-02T00:45:00Z,26.0257,-81.7332,1.04,29.1,1111122 
NERRS,ioos:station:NOAA.NERRS:rkblhwq:1,2016-03-02T01:45:00Z,26.0257,-81.7332,0.94,28.9,1111122 
NERRS,ioos:station:NOAA.NERRS:rkblhwq:1,2016-03-02T02:45:00Z,26.0257,-81.7332,0.83,28.4,1111122 
NERRS,ioos:station:NOAA.NERRS:rkblhwq:1,2016-03-02T03:45:00Z,26.0257,-81.7332,0.72,28.1,1111122 
NERRS,ioos:station:NOAA.NERRS:rkblhwq:1,2016-03-02T05:45:00Z,26.0257,-81.7332,0.52,25.6,1111122 
NERRS,ioos:station:NOAA.NERRS:rkblhwq:1,2016-03-02T06:45:00Z,26.0257,-81.7332,0.47,25.9,1111122 
NERRS,ioos:station:NOAA.NERRS:rkblhwq:1,2016-03-02T07:45:00Z,26.0257,-81.7332,0.46,25.9,1111122 
NERRS,ioos:station:NOAA.NERRS:rkblhwq:1,2016-03-02T09:45:00Z,26.0257,-81.7332,0.64,27.7,1111122 
NERRS,ioos:station:NOAA.NERRS:rkblhwq:1,2016-03-02T10:45:00Z,26.0257,-81.7332,0.74,28.3,1111122 
NERRS,ioos:station:NOAA.NERRS:rkblhwq:1,2016-03-02T11:45:00Z,26.0257,-81.7332,0.83,28.6,1111122 
NERRS,ioos:station:NOAA.NERRS:rkblhwq:1,2016-03-02T12:45:00Z,26.0257,-81.7332,0.89,28.8,1111122 
NERRS,ioos:station:NOAA.NERRS:rkblhwq:1,2016-03-02T13:45:00Z,26.0257,-81.7332,0.89,28.7,1111122 
NERRS,ioos:station:NOAA.NERRS:rkblhwq:1,2016-03-02T14:45:00Z,26.0257,-81.7332,0.89,28.8,1111122 
NERRS,ioos:station:NOAA.NERRS:rkblhwq:1,2016-03-02T15:45:00Z,26.0257,-81.7332,0.86,28.6,1111122 
NERRS,ioos:station:NOAA.NERRS:rkblhwq:1,2016-03-02T16:45:00Z,26.0257,-81.7332,0.78,27.9,1111122 
NERRS,ioos:station:NOAA.NERRS:rkblhwq:1,2016-03-02T17:45:00Z,26.0257,-81.7332,0.73,28.1,1111122 
NERRS,ioos:station:NOAA.NERRS:rkblhwq:1,2016-03-02T18:45:00Z,26.0257,-81.7332,0.72,28.4,1111122 
NERRS,ioos:station:NOAA.NERRS:rkblhwq:1,2016-03-02T19:45:00Z,26.0257,-81.7332,0.77,27.7,1111122 
NERRS,ioos:station:NOAA.NERRS:rkblhwq:1,2016-03-02T20:45:00Z,26.0257,-81.7332,0.84,28.6,1111122 
NERRS,ioos:station:NOAA.NERRS:rkblhwq:1,2016-03-02T21:45:00Z,26.0257,-81.7332,0.9,28.7,1111122 
NERRS,ioos:station:NOAA.NERRS:rkblhwq:1,2016-03-02T22:45:00Z,26.0257,-81.7332,0.96,29.1,1111122 
NERRS,ioos:station:NOAA.NERRS:rkblhwq:1,2016-03-02T23:45:00Z,26.0257,-81.7332,1.0,29.1,1111122 
NERRS,ioos:station:NOAA.NERRS:rkblhwq:1,2016-03-03T00:45:00Z,26.0257,-81.7332,1.01,28.9,1111122 
NERRS,ioos:station:NOAA.NERRS:rkblhwq:1,2016-03-03T01:45:00Z,26.0257,-81.7332,0.97,29.0,1111122 
NERRS,ioos:station:NOAA.NERRS:rkblhwq:1,2016-03-03T02:45:00Z,26.0257,-81.7332,0.89,29.0,1111122 
NERRS,ioos:station:NOAA.NERRS:rkblhwq:1,2016-03-03T03:45:00Z,26.0257,-81.7332,0.8,28.4,1111122 
NERRS,ioos:station:NOAA.NERRS:rkblhwq:1,2016-03-03T04:45:00Z,26.0257,-81.7332,0.68,27.9,1111122 
NERRS,ioos:station:NOAA.NERRS:rkblhwq:1,2016-03-03T05:45:00Z,26.0257,-81.7332,0.56,27.8,1111122 
NERRS,ioos:station:NOAA.NERRS:rkblhwq:1,2016-03-03T06:45:00Z,26.0257,-81.7332,0.47,26.9,1111122 
NERRS,ioos:station:NOAA.NERRS:rkblhwq:1,2016-03-03T07:45:00Z,26.0257,-81.7332,0.39,24.2,1111122 
NERRS,ioos:station:NOAA.NERRS:rkblhwq:1,2016-03-03T08:45:00Z,26.0257,-81.7332,0.38,24.2,1111122 
NERRS,ioos:station:NOAA.NERRS:rkblhwq:1,2016-03-03T09:45:00Z,26.0257,-81.7332,0.45,28.1,1111122 
NERRS,ioos:station:NOAA.NERRS:rkblhwq:1,2016-03-03T10:45:00Z,26.0257,-81.7332,0.54,27.1,1111122 
NERRS,ioos:station:NOAA.NERRS:rkblhwq:1,2016-03-03T11:45:00Z,26.0257,-81.7332,0.64,27.6,1111122 
NERRS,ioos:station:NOAA.NERRS:rkblhwq:1,2016-03-03T13:45:00Z,26.0257,-81.7332,0.85,28.8,1111122 
NERRS,ioos:station:NOAA.NERRS:rkblhwq:1,2016-03-03T14:45:00Z,26.0257,-81.7332,0.92,29.0,1111122 
NERRS,ioos:station:NOAA.NERRS:rkblhwq:1,2016-03-03T15:45:00Z,26.0257,-81.7332,0.93,28.9,1111122 
NERRS,ioos:station:NOAA.NERRS:rkblhwq:1,2016-03-03T16:45:00Z,26.0257,-81.7332,0.88,27.7,1111122 
NERRS,ioos:station:NOAA.NERRS:rkblhwq:1,2016-03-03T17:45:00Z,26.0257,-81.7332,0.81,27.8,1111122 
NERRS,ioos:station:NOAA.NERRS:rkblhwq:1,2016-03-03T18:45:00Z,26.0257,-81.7332,0.77,27.7,1111122 
NERRS,ioos:station:NOAA.NERRS:rkblhwq:1,2016-03-03T19:45:00Z,26.0257,-81.7332,0.72,27.7,1111122 
NERRS,ioos:station:NOAA.NERRS:rkblhwq:1,2016-03-03T20:45:00Z,26.0257,-81.7332,0.71,28.4,1111122 
NERRS,ioos:station:NOAA.NERRS:rkblhwq:1,2016-03-03T21:45:00Z,26.0257,-81.7332,0.77,27.7,1111122 
NERRS,ioos:station:NOAA.NERRS:rkblhwq:1,2016-03-03T22:45:00Z,26.0257,-81.7332,0.88,28.3,1111122 
NERRS,ioos:station:NOAA.NERRS:rkblhwq:1,2016-03-03T23:45:00Z,26.0257,-81.7332,0.97,29.2,1111122 
NERRS,ioos:station:NOAA.NERRS:rkblhwq:1,2016-03-04T00:45:00Z,26.0257,-81.7332,1.04,29.8,1111122 
NERRS,ioos:station:NOAA.NERRS:rkblhwq:1,2016-03-04T01:45:00Z,26.0257,-81.7332,1.06,29.5,1111122 
NERRS,ioos:station:NOAA.NERRS:rkblhwq:1,2016-03-04T02:45:00Z,26.0257,-81.7332,1.01,28.7,1111122 
NERRS,ioos:station:NOAA.NERRS:rkblhwq:1,2016-03-04T03:45:00Z,26.0257,-81.7332,0.91,28.5,1111122 
NERRS,ioos:station:NOAA.NERRS:rkblhwq:1,2016-03-04T04:45:00Z,26.0257,-81.7332,0.79,28.2,1111122 
NERRS,ioos:station:NOAA.NERRS:rkblhwq:1,2016-03-04T05:45:00Z,26.0257,-81.7332,0.68,27.7,1111122 
NERRS,ioos:station:NOAA.NERRS:rkblhwq:1,2016-03-04T06:45:00Z,26.0257,-81.7332,0.57,27.6,1111122 
NERRS,ioos:station:NOAA.NERRS:rkblhwq:1,2016-03-04T07:45:00Z,26.0257,-81.7332,0.47,27.1,1111122 
NERRS,ioos:station:NOAA.NERRS:rkblhwq:1,2016-03-04T09:45:00Z,26.0257,-81.7332,0.37,26.1,1111122 
NERRS,ioos:station:NOAA.NERRS:rkblhwq:1,2016-03-04T10:45:00Z,26.0257,-81.7332,0.43,26.6,1111122 
NERRS,ioos:station:NOAA.NERRS:rkblhwq:1,2016-03-04T11:45:00Z,26.0257,-81.7332,0.52,27.3,1111122 
NERRS,ioos:station:NOAA.NERRS:rkblhwq:1,2016-03-04T12:45:00Z,26.0257,-81.7332,0.64,28.3,1111122 
NERRS,ioos:station:NOAA.NERRS:rkblhwq:1,2016-03-04T13:45:00Z,26.0257,-81.7332,0.78,28.4,1111122 
NERRS,ioos:station:NOAA.NERRS:rkblhwq:1,2016-03-04T14:45:00Z,26.0257,-81.7332,0.91,29.1,1111122 
NERRS,ioos:station:NOAA.NERRS:rkblhwq:1,2016-03-04T15:45:00Z,26.0257,-81.7332,0.98,29.5,1111122 
NERRS,ioos:station:NOAA.NERRS:rkblhwq:1,2016-03-04T16:45:00Z,26.0257,-81.7332,0.93,29.6,1111122 
NERRS,ioos:station:NOAA.NERRS:rkblhwq:1,2016-03-04T17:45:00Z,26.0257,-81.7332,0.85,29.4,1111122 
NERRS,ioos:station:NOAA.NERRS:rkblhwq:1,2016-03-04T18:45:00Z,26.0257,-81.7332,0.86,29.2,1111122 
NERRS,ioos:station:NOAA.NERRS:rkblhwq:1,2016-03-04T19:45:00Z,26.0257,-81.7332,0.81,29.1,1111122 
NERRS,ioos:station:NOAA.NERRS:rkblhwq:1,2016-03-04T20:45:00Z,26.0257,-81.7332,0.72,28.9,1111122 
NERRS,ioos:station:NOAA.NERRS:rkblhwq:1,2016-03-04T21:45:00Z,26.0257,-81.7332,0.67,28.2,1111122 
NERRS,ioos:station:NOAA.NERRS:rkblhwq:1,2016-03-04T22:45:00Z,26.0257,-81.7332,0.72,28.7,1111122 
NERRS,ioos:station:NOAA.NERRS:rkblhwq:1,2016-03-04T23:45:00Z,26.0257,-81.7332,0.83,28.8,1111122 
NERRS,ioos:station:NOAA.NERRS:rkblhwq:1,2016-03-05T00:45:00Z,26.0257,-81.7332,0.95,29.0,1111122 
NERRS,ioos:station:NOAA.NERRS:rkblhwq:1,2016-03-05T01:45:00Z,26.0257,-81.7332,1.04,29.2,1111122 
NERRS,ioos:station:NOAA.NERRS:rkblhwq:1,2016-03-05T02:45:00Z,26.0257,-81.7332,1.07,29.5,1111122 
NERRS,ioos:station:NOAA.NERRS:rkblhwq:1,2016-03-05T04:45:00Z,26.0257,-81.7332,0.91,28.9,1111122 
NERRS,ioos:station:NOAA.NERRS:rkblhwq:1,2016-03-05T05:45:00Z,26.0257,-81.7332,0.79,28.7,1111122 
NERRS,ioos:station:NOAA.NERRS:rkblhwq:1,2016-03-05T06:45:00Z,26.0257,-81.7332,0.67,28.6,1111122 
NERRS,ioos:station:NOAA.NERRS:rkblhwq:1,2016-03-05T07:45:00Z,26.0257,-81.7332,0.54,28.4,1111122 
NERRS,ioos:station:NOAA.NERRS:rkblhwq:1,2016-03-05T09:45:00Z,26.0257,-81.7332,0.31,25.1,1111122 
NERRS,ioos:station:NOAA.NERRS:rkblhwq:1,2016-03-05T10:45:00Z,26.0257,-81.7332,0.27,21.9,1111122 
NERRS,ioos:station:NOAA.NERRS:rkblhwq:1,2016-03-05T11:45:00Z,26.0257,-81.7332,0.35,24.4,1111122 
NERRS,ioos:station:NOAA.NERRS:rkblhwq:1,2016-03-05T12:45:00Z,26.0257,-81.7332,0.46,26.2,1111122 
NERRS,ioos:station:NOAA.NERRS:rkblhwq:1,2016-03-05T13:45:00Z,26.0257,-81.7332,0.6,27.3,1111122 
NERRS,ioos:station:NOAA.NERRS:rkblhwq:1,2016-03-05T14:45:00Z,26.0257,-81.7332,0.76,28.1,1111122 
NERRS,ioos:station:NOAA.NERRS:rkblhwq:1,2016-03-05T15:45:00Z,26.0257,-81.7332,0.91,28.5,1111122 
NERRS,ioos:station:NOAA.NERRS:rkblhwq:1,2016-03-05T16:45:00Z,26.0257,-81.7332,1.01,29.3,1111122 
NERRS,ioos:station:NOAA.NERRS:rkblhwq:1,2016-03-05T17:45:00Z,26.0257,-81.7332,1.02,29.2,1111122 
NERRS,ioos:station:NOAA.NERRS:rkblhwq:1,2016-03-05T18:45:00Z,26.0257,-81.7332,0.92,29.5,1111122 
NERRS,ioos:station:NOAA.NERRS:rkblhwq:1,2016-03-05T19:45:00Z,26.0257,-81.7332,0.82,29.6,1111122 
NERRS,ioos:station:NOAA.NERRS:rkblhwq:1,2016-03-05T20:45:00Z,26.0257,-81.7332,0.73,29.4,1111122 
NERRS,ioos:station:NOAA.NERRS:rkblhwq:1,2016-03-05T21:45:00Z,26.0257,-81.7332,0.66,28.9,1111122 
NERRS,ioos:station:NOAA.NERRS:rkblhwq:1,2016-03-05T22:45:00Z,26.0257,-81.7332,0.68,28.8,1111122 
NERRS,ioos:station:NOAA.NERRS:rkblhwq:1,2016-03-05T23:45:00Z,26.0257,-81.7332,0.77,28.9,1111122 
NERRS,ioos:station:NOAA.NERRS:rkblhwq:1,2016-03-06T00:45:00Z,26.0257,-81.7332,0.89,29.0,1111122 
NERRS,ioos:station:NOAA.NERRS:rkblhwq:1,2016-03-06T01:45:00Z,26.0257,-81.7332,1.01,29.1,1111122 
NERRS,ioos:station:NOAA.NERRS:rkblhwq:1,2016-03-06T02:45:00Z,26.0257,-81.7332,1.09,29.5,1111122 
NERRS,ioos:station:NOAA.NERRS:rkblhwq:1,2016-03-06T03:45:00Z,26.0257,-81.7332,1.13,30.2,1111122 
NERRS,ioos:station:NOAA.NERRS:rkblhwq:1,2016-03-06T04:45:00Z,26.0257,-81.7332,1.07,29.3,1111122 
NERRS,ioos:station:NOAA.NERRS:rkblhwq:1,2016-03-06T05:45:00Z,26.0257,-81.7332,0.97,29.0,1111122 
NERRS,ioos:station:NOAA.NERRS:rkblhwq:1,2016-03-06T06:45:00Z,26.0257,-81.7332,0.83,28.8,1111122 
NERRS,ioos:station:NOAA.NERRS:rkblhwq:1,2016-03-06T07:45:00Z,26.0257,-81.7332,0.68,27.7,1111122 
NERRS,ioos:station:NOAA.NERRS:rkblhwq:1,2016-03-06T09:45:00Z,26.0257,-81.7332,0.4,27.2,1111122 
NERRS,ioos:station:NOAA.NERRS:rkblhwq:1,2016-03-06T10:45:00Z,26.0257,-81.7332,0.29,26.7,1111122 
NERRS,ioos:station:NOAA.NERRS:rkblhwq:1,2016-03-06T11:45:00Z,26.0257,-81.7332,0.24,24.2,1111122 
NERRS,ioos:station:NOAA.NERRS:rkblhwq:1,2016-03-06T12:45:00Z,26.0257,-81.7332,0.32,25.3,1111122 
NERRS,ioos:station:NOAA.NERRS:rkblhwq:1,2016-03-06T13:45:00Z,26.0257,-81.7332,0.43,26.8,1111122 
NERRS,ioos:station:NOAA.NERRS:rkblhwq:1,2016-03-06T14:45:00Z,26.0257,-81.7332,0.57,27.8,1111122 
NERRS,ioos:station:NOAA.NERRS:rkblhwq:1,2016-03-06T15:45:00Z,26.0257,-81.7332,0.72,28.7,1111122 
NERRS,ioos:station:NOAA.NERRS:rkblhwq:1,2016-03-06T16:45:00Z,26.0257,-81.7332,0.87,29.1,1111122 
NERRS,ioos:station:NOAA.NERRS:rkblhwq:1,2016-03-06T17:45:00Z,26.0257,-81.7332,0.91,28.9,1111122 
NERRS,ioos:station:NOAA.NERRS:rkblhwq:1,2016-03-06T18:45:00Z,26.0257,-81.7332,0.83,28.4,1111122 
NERRS,ioos:station:NOAA.NERRS:rkblhwq:1,2016-03-06T19:45:00Z,26.0257,-81.7332,0.75,27.8,1111122 
NERRS,ioos:station:NOAA.NERRS:rkblhwq:1,2016-03-06T20:45:00Z,26.0257,-81.7332,0.65,27.8,1111122 
NERRS,ioos:station:NOAA.NERRS:rkblhwq:1,2016-03-06T21:45:00Z,26.0257,-81.7332,0.57,27.7,1111122 
NERRS,ioos:station:NOAA.NERRS:rkblhwq:1,2016-03-06T22:45:00Z,26.0257,-81.7332,0.51,27.8,1111122 
NERRS,ioos:station:NOAA.NERRS:rkblhwq:1,2016-03-06T23:45:00Z,26.0257,-81.7332,0.55,27.4,1111122 
NERRS,ioos:station:NOAA.NERRS:rkblhwq:1,2016-03-07T00:45:00Z,26.0257,-81.7332,0.67,28.4,1111122 
NERRS,ioos:station:NOAA.NERRS:rkblhwq:1,2016-03-07T01:45:00Z,26.0257,-81.7332,0.82,28.6,1111122 
NERRS,ioos:station:NOAA.NERRS:rkblhwq:1,2016-03-07T02:45:00Z,26.0257,-81.7332,0.96,28.9,1111122 
NERRS,ioos:station:NOAA.NERRS:rkblhwq:1,2016-03-07T03:45:00Z,26.0257,-81.7332,1.08,29.6,1111122 
NERRS,ioos:station:NOAA.NERRS:rkblhwq:1,2016-03-07T04:45:00Z,26.0257,-81.7332,1.13,30.3,1111122 
NERRS,ioos:station:NOAA.NERRS:rkblhwq:1,2016-03-07T05:45:00Z,26.0257,-81.7332,1.07,29.4,1111122 
NERRS,ioos:station:NOAA.NERRS:rkblhwq:1,2016-03-07T06:45:00Z,26.0257,-81.7332,0.93,28.5,1111122 
NERRS,ioos:station:NOAA.NERRS:rkblhwq:1,2016-03-07T07:45:00Z,26.0257,-81.7332,0.78,28.8,1111122 
NERRS,ioos:station:NOAA.NERRS:rkblhwq:1,2016-03-07T09:45:00Z,26.0257,-81.7332,0.49,28.0,1111122 
NERRS,ioos:station:NOAA.NERRS:rkblhwq:1,2016-03-07T10:45:00Z,26.0257,-81.7332,0.36,27.9,1111122 
NERRS,ioos:station:NOAA.NERRS:rkblhwq:1,2016-03-07T12:45:00Z,26.0257,-81.7332,0.29,26.9,1111122 
NERRS,ioos:station:NOAA.NERRS:rkblhwq:1,2016-03-07T13:45:00Z,26.0257,-81.7332,0.43,27.8,1111122 
NERRS,ioos:station:NOAA.NERRS:rkblhwq:1,2016-03-07T14:45:00Z,26.0257,-81.7332,0.59,28.2,1111122 
NERRS,ioos:station:NOAA.NERRS:rkblhwq:1,2016-03-07T15:45:00Z,26.0257,-81.7332,0.77,29.4,1111122 
NERRS,ioos:station:NOAA.NERRS:rkblhwq:1,2016-03-07T16:45:00Z,26.0257,-81.7332,0.95,29.8,1111122 
NERRS,ioos:station:NOAA.NERRS:rkblhwq:1,2016-03-07T18:45:00Z,26.0257,-81.7332,1.09,29.7,1111122 
NERRS,ioos:station:NOAA.NERRS:rkblhwq:1,2016-03-07T20:45:00Z,26.0257,-81.7332,0.85,29.0,1111122 
NERRS,ioos:station:NOAA.NERRS:rkblhwq:1,2016-03-08T10:45:00Z,26.0257,-81.7332,0.58,28.8,1111122 
NERRS,ioos:station:NOAA.NERRS:rkblhwq:1,2016-03-08T11:45:00Z,26.0257,-81.7332,0.45,28.6,1111122 
NERRS,ioos:station:NOAA.NERRS:rkblhwq:1,2016-03-08T12:45:00Z,26.0257,-81.7332,0.36,28.8,1111122 
NERRS,ioos:station:NOAA.NERRS:rkblhwq:1,2016-03-08T13:45:00Z,26.0257,-81.7332,0.43,28.4,1111122 
NERRS,ioos:station:NOAA.NERRS:rkblhwq:1,2016-03-08T14:45:00Z,26.0257,-81.7332,0.57,28.7,1111122 
NERRS,ioos:station:NOAA.NERRS:rkblhwq:1,2016-03-08T15:45:00Z,26.0257,-81.7332,0.75,29.7,1111122 
NERRS,ioos:station:NOAA.NERRS:rkblhwq:1,2016-03-08T16:45:00Z,26.0257,-81.7332,0.95,29.8,1111122 
NERRS,ioos:station:NOAA.NERRS:rkblhwq:1,2016-03-08T17:45:00Z,26.0257,-81.7332,1.11,30.5,1111122 
NERRS,ioos:station:NOAA.NERRS:rkblhwq:1,2016-03-08T18:45:00Z,26.0257,-81.7332,1.19,30.7,1111122 
NERRS,ioos:station:NOAA.NERRS:rkblhwq:1,2016-03-08T19:45:00Z,26.0257,-81.7332,1.1,30.5,1111122 
NERRS,ioos:station:NOAA.NERRS:rkblhwq:1,2016-03-08T20:45:00Z,26.0257,-81.7332,0.96,30.0,1111122 
NERRS,ioos:station:NOAA.NERRS:rkblhwq:1,2016-03-08T21:45:00Z,26.0257,-81.7332,0.81,29.6,1111122 
NERRS,ioos:station:NOAA.NERRS:rkblhwq:1,2016-03-08T22:45:00Z,26.0257,-81.7332,0.67,29.6,1111122 
NERRS,ioos:station:NOAA.NERRS:rkblhwq:1,2016-03-08T23:45:00Z,26.0257,-81.7332,0.55,29.4,1111122 
NERRS,ioos:station:NOAA.NERRS:rkblhwq:1,2016-03-09T00:45:00Z,26.0257,-81.7332,0.5,29.2,1111122 
NERRS,ioos:station:NOAA.NERRS:rkblhwq:1,2016-03-09T01:45:00Z,26.0257,-81.7332,0.6,29.9,1111122 
NERRS,ioos:station:NOAA.NERRS:rkblhwq:1,2016-03-09T02:45:00Z,26.0257,-81.7332,0.76,30.1,1111122 
NERRS,ioos:station:NOAA.NERRS:rkblhwq:1,2016-03-09T04:45:00Z,26.0257,-81.7332,1.14,31.0,1111122 
NERRS,ioos:station:NOAA.NERRS:rkblhwq:1,2016-03-09T05:45:00Z,26.0257,-81.7332,1.29,31.4,1111122 
NERRS,ioos:station:NOAA.NERRS:rkblhwq:1,2016-03-09T06:45:00Z,26.0257,-81.7332,1.34,32.0,1111122 
NERRS,ioos:station:NOAA.NERRS:rkblhwq:1,2016-03-09T07:45:00Z,26.0257,-81.7332,1.26,31.2,1111122 
NERRS,ioos:station:NOAA.NERRS:rkblhwq:1,2016-03-09T09:45:00Z,26.0257,-81.7332,0.96,30.4,1111122 
NERRS,ioos:station:NOAA.NERRS:rkblhwq:1,2016-03-09T10:45:00Z,26.0257,-81.7332,0.8,30.0,1111122 
NERRS,ioos:station:NOAA.NERRS:rkblhwq:1,2016-03-09T11:45:00Z,26.0257,-81.7332,0.65,29.7,1111122 
NERRS,ioos:station:NOAA.NERRS:rkblhwq:1,2016-03-09T12:45:00Z,26.0257,-81.7332,0.53,29.3,1111122 
NERRS,ioos:station:NOAA.NERRS:rkblhwq:1,2016-03-09T13:45:00Z,26.0257,-81.7332,0.53,28.7,1111122 
NERRS,ioos:station:NOAA.NERRS:rkblhwq:1,2016-03-09T14:45:00Z,26.0257,-81.7332,0.64,30.0,1111122 
NERRS,ioos:station:NOAA.NERRS:rkblhwq:1,2016-03-09T16:45:00Z,26.0257,-81.7332,1.02,30.9,1111122 
NERRS,ioos:station:NOAA.NERRS:rkblhwq:1,2016-03-09T17:45:00Z,26.0257,-81.7332,1.19,31.3,1111122 
NERRS,ioos:station:NOAA.NERRS:rkblhwq:1,2016-03-09T18:45:00Z,26.0257,-81.7332,1.3,31.6,1111122 
NERRS,ioos:station:NOAA.NERRS:rkblhwq:1,2016-03-09T19:45:00Z,26.0257,-81.7332,1.29,31.2,1111122 
NERRS,ioos:station:NOAA.NERRS:rkblhwq:1,2016-03-09T20:45:00Z,26.0257,-81.7332,1.17,31.1,1111122 
NERRS,ioos:station:NOAA.NERRS:rkblhwq:1,2016-03-09T21:45:00Z,26.0257,-81.7332,1.02,30.7,1111122 
NERRS,ioos:station:NOAA.NERRS:rkblhwq:1,2016-03-09T22:45:00Z,26.0257,-81.7332,0.84,30.3,1111122 
NERRS,ioos:station:NOAA.NERRS:rkblhwq:1,2016-03-09T23:45:00Z,26.0257,-81.7332,0.69,30.3,1111122 
NERRS,ioos:station:NOAA.NERRS:rkblhwq:1,2016-03-10T00:45:00Z,26.0257,-81.7332,0.56,30.1,1111122 
NERRS,ioos:station:NOAA.NERRS:rkblhwq:1,2016-03-10T01:45:00Z,26.0257,-81.7332,0.5,30.0,1111122 
NERRS,ioos:station:NOAA.NERRS:rkblhwq:1,2016-03-10T02:45:00Z,26.0257,-81.7332,0.61,30.5,1111122 
NERRS,ioos:station:NOAA.NERRS:rkblhwq:1,2016-03-10T03:45:00Z,26.0257,-81.7332,0.79,31.0,1111122 
NERRS,ioos:station:NOAA.NERRS:rkblhwq:1,2016-03-10T04:45:00Z,26.0257,-81.7332,0.99,31.6,1111122 
NERRS,ioos:station:NOAA.NERRS:rkblhwq:1,2016-03-10T05:45:00Z,26.0257,-81.7332,1.18,31.6,1111122 
NERRS,ioos:station:NOAA.NERRS:rkblhwq:1,2016-03-10T06:45:00Z,26.0257,-81.7332,1.31,31.9,1111122 
NERRS,ioos:station:NOAA.NERRS:rkblhwq:1,2016-03-10T07:45:00Z,26.0257,-81.7332,1.34,32.2,1111122 
NERRS,ioos:station:NOAA.NERRS:rkblhwq:1,2016-03-10T09:45:00Z,26.0257,-81.7332,1.09,30.9,1111122 
NERRS,ioos:station:NOAA.NERRS:rkblhwq:1,2016-03-10T11:45:00Z,26.0257,-81.7332,0.75,30.6,1111122 
NERRS,ioos:station:NOAA.NERRS:rkblhwq:1,2016-03-10T12:45:00Z,26.0257,-81.7332,0.61,30.5,1111122 
NERRS,ioos:station:NOAA.NERRS:rkblhwq:1,2016-03-10T13:45:00Z,26.0257,-81.7332,0.51,29.8,1111122 
NERRS,ioos:station:NOAA.NERRS:rkblhwq:1,2016-03-10T14:45:00Z,26.0257,-81.7332,0.56,30.1,1111122 
NERRS,ioos:station:NOAA.NERRS:rkblhwq:1,2016-03-10T15:45:00Z,26.0257,-81.7332,0.69,30.4,1111122 
NERRS,ioos:station:NOAA.NERRS:rkblhwq:1,2016-03-10T16:45:00Z,26.0257,-81.7332,0.89,31.0,1111122 
NERRS,ioos:station:NOAA.NERRS:rkblhwq:1,2016-03-10T17:45:00Z,26.0257,-81.7332,1.08,31.1,1111122 
NERRS,ioos:station:NOAA.NERRS:rkblhwq:1,2016-03-10T18:45:00Z,26.0257,-81.7332,1.25,31.7,1111122 
NERRS,ioos:station:NOAA.NERRS:rkblhwq:1,2016-03-10T19:45:00Z,26.0257,-81.7332,1.32,32.0,1111122 
NERRS,ioos:station:NOAA.NERRS:rkblhwq:1,2016-03-10T20:45:00Z,26.0257,-81.7332,1.26,31.7,1111122 
NERRS,ioos:station:NOAA.NERRS:rkblhwq:1,2016-03-10T21:45:00Z,26.0257,-81.7332,1.13,31.9,1111122 
NERRS,ioos:station:NOAA.NERRS:rkblhwq:1,2016-03-10T22:45:00Z,26.0257,-81.7332,0.96,31.1,1111122 
NERRS,ioos:station:NOAA.NERRS:rkblhwq:1,2016-03-10T23:45:00Z,26.0257,-81.7332,0.8,30.7,1111122 
NERRS,ioos:station:NOAA.NERRS:rkblhwq:1,2016-03-11T00:45:00Z,26.0257,-81.7332,0.64,30.6,1111122 
NERRS,ioos:station:NOAA.NERRS:rkblhwq:1,2016-03-11T01:45:00Z,26.0257,-81.7332,0.51,30.5,1111122 
NERRS,ioos:station:NOAA.NERRS:rkblhwq:1,2016-03-11T02:45:00Z,26.0257,-81.7332,0.46,29.7,1111122 
NERRS,ioos:station:NOAA.NERRS:rkblhwq:1,2016-03-11T03:45:00Z,26.0257,-81.7332,0.58,30.4,1111122 
NERRS,ioos:station:NOAA.NERRS:rkblhwq:1,2016-03-11T04:45:00Z,26.0257,-81.7332,0.76,31.5,1111122 
NERRS,ioos:station:NOAA.NERRS:rkblhwq:1,2016-03-11T05:45:00Z,26.0257,-81.7332,0.98,31.3,1111122 
NERRS,ioos:station:NOAA.NERRS:rkblhwq:1,2016-03-11T06:45:00Z,26.0257,-81.7332,1.17,31.7,1111122 
NERRS,ioos:station:NOAA.NERRS:rkblhwq:1,2016-03-11T07:45:00Z,26.0257,-81.7332,1.3,31.9,1111122 
NERRS,ioos:station:NOAA.NERRS:rkblhwq:1,2016-03-11T09:45:00Z,26.0257,-81.7332,1.17,31.8,1111122 
NERRS,ioos:station:NOAA.NERRS:rkblhwq:1,2016-03-11T10:45:00Z,26.0257,-81.7332,1.02,30.9,1111122 
NERRS,ioos:station:NOAA.NERRS:rkblhwq:1,2016-03-11T11:45:00Z,26.0257,-81.7332,0.85,30.8,1111122 
NERRS,ioos:station:NOAA.NERRS:rkblhwq:1,2016-03-11T12:45:00Z,26.0257,-81.7332,0.7,30.9,1111122 
NERRS,ioos:station:NOAA.NERRS:rkblhwq:1,2016-03-11T14:45:00Z,26.0257,-81.7332,0.47,30.8,1111122 
NERRS,ioos:station:NOAA.NERRS:rkblhwq:1,2016-03-11T15:45:00Z,26.0257,-81.7332,0.57,30.7,1111122 
NERRS,ioos:station:NOAA.NERRS:rkblhwq:1,2016-03-11T17:45:00Z,26.0257,-81.7332,0.92,31.3,1111122 
NERRS,ioos:station:NOAA.NERRS:rkblhwq:1,2016-03-11T19:45:00Z,26.0257,-81.7332,1.19,31.8,1111122 
NERRS,ioos:station:NOAA.NERRS:rkblhwq:1,2016-03-11T20:45:00Z,26.0257,-81.7332,1.24,31.9,1111122 
NERRS,ioos:station:NOAA.NERRS:rkblhwq:1,2016-03-11T21:45:00Z,26.0257,-81.7332,1.14,32.0,1111122 
NERRS,ioos:station:NOAA.NERRS:rkblhwq:1,2016-03-11T22:45:00Z,26.0257,-81.7332,1.0,31.8,1111122 
NERRS,ioos:station:NOAA.NERRS:rkblhwq:1,2016-03-11T23:45:00Z,26.0257,-81.7332,0.83,31.2,1111122 
NERRS,ioos:station:NOAA.NERRS:rkblhwq:1,2016-03-12T00:45:00Z,26.0257,-81.7332,0.67,31.2,1111122 
NERRS,ioos:station:NOAA.NERRS:rkblhwq:1,2016-03-12T01:45:00Z,26.0257,-81.7332,0.54,30.7,1111122 
NERRS,ioos:station:NOAA.NERRS:rkblhwq:1,2016-03-12T02:45:00Z,26.0257,-81.7332,0.43,30.5,1111122 
NERRS,ioos:station:NOAA.NERRS:rkblhwq:1,2016-03-12T03:45:00Z,26.0257,-81.7332,0.44,29.6,1111122 
NERRS,ioos:station:NOAA.NERRS:rkblhwq:1,2016-03-12T06:45:00Z,26.0257,-81.7332,0.91,31.2,1111122 
NERRS,ioos:station:NOAA.NERRS:rkblhwq:1,2016-03-12T07:45:00Z,26.0257,-81.7332,1.08,31.7,1111122 
NERRS,ioos:station:NOAA.NERRS:rkblhwq:1,2016-03-12T09:45:00Z,26.0257,-81.7332,1.17,31.8,1111122 
NERRS,ioos:station:NOAA.NERRS:rkblhwq:1,2016-03-12T10:45:00Z,26.0257,-81.7332,1.04,31.7,1111122 
NERRS,ioos:station:NOAA.NERRS:rkblhwq:1,2016-03-12T11:45:00Z,26.0257,-81.7332,0.9,31.1,1111122 
NERRS,ioos:station:NOAA.NERRS:rkblhwq:1,2016-03-12T12:45:00Z,26.0257,-81.7332,0.77,30.9,1111122 
NERRS,ioos:station:NOAA.NERRS:rkblhwq:1,2016-03-12T14:45:00Z,26.0257,-81.7332,0.58,30.8,1111122 
NERRS,ioos:station:NOAA.NERRS:rkblhwq:1,2016-03-12T15:45:00Z,26.0257,-81.7332,0.6,30.8,1111122 
NERRS,ioos:station:NOAA.NERRS:rkblhwq:1,2016-03-12T16:45:00Z,26.0257,-81.7332,0.71,31.1,1111122 
NERRS,ioos:station:NOAA.NERRS:rkblhwq:1,2016-03-12T17:45:00Z,26.0257,-81.7332,0.87,31.1,1111122 
NERRS,ioos:station:NOAA.NERRS:rkblhwq:1,2016-03-12T18:45:00Z,26.0257,-81.7332,1.04,31.7,1111122 
NERRS,ioos:station:NOAA.NERRS:rkblhwq:1,2016-03-12T20:45:00Z,26.0257,-81.7332,1.26,32.0,1111122 
NERRS,ioos:station:NOAA.NERRS:rkblhwq:1,2016-03-12T22:45:00Z,26.0257,-81.7332,1.11,31.9,1111122 
NERRS,ioos:station:NOAA.NERRS:rkblhwq:1,2016-03-12T23:45:00Z,26.0257,-81.7332,0.97,31.7,1111122 
NERRS,ioos:station:NOAA.NERRS:rkblhwq:1,2016-03-13T00:45:00Z,26.0257,-81.7332,0.8,31.3,1111122 
NERRS,ioos:station:NOAA.NERRS:rkblhwq:1,2016-03-13T01:45:00Z,26.0257,-81.7332,0.65,31.0,1111122 
NERRS,ioos:station:NOAA.NERRS:rkblhwq:1,2016-03-13T02:45:00Z,26.0257,-81.7332,0.5,31.2,1111122 
NERRS,ioos:station:NOAA.NERRS:rkblhwq:1,2016-03-13T03:45:00Z,26.0257,-81.7332,0.38,30.8,1111122 